Location: Arrington
(35.8681°N, 86.7092°W)
Time: 02:42:15
(UTC+00:00)

SL-08 R/B - Pass Details

Date: 23 November 2019
Orbit: 944 x 1008 km, 82.9° (Epoch: 09 December)

Event Time Altitude Azimuth Distance (km) Brightness Sun altitude
Rises 10:44:12 0° 192° (SSW) 3,615 7.5 -21.4°
Reaches altitude 10° 10:46:43 10° 195° (SSW) 2,667 6.7 -20.9°
Maximum altitude 10:52:45 66° 278° (W) 1,025 4.3 -19.7°
Drops below altitude 10° 10:58:48 10° 0° (N) 2,668 6.7 -18.5°
Sets 11:01:20 0° 4° (N) 3,617 7.4 -18.0°
